This demonstration page uses our WeatherBlox Daily Observations layout. Learn more.

Left ArrowRight Arrow

30.21309, -93.2044

Hourly Observations for August 7, 2020

Temp ( °F °C ) Dew Point ( °F °C ) Humidity (%) Winds ( mph kmh ) Pressure ( in mb ) Visibility ( mi km ) Precip ( " mm )
12:15 am 00:15 Clear 80 26.6 77 25 91 91 Calm 30.02 1017 10 16 0.00 0.00
12:35 am 00:35 Clear 78 25.8 77 24.8 94 94 E 3 6 30.02 1017 10 16 0.00 0.00
12:55 am 00:55 Clear 79 26.1 77 25 94 94 Calm 30.02 1017 10 16 0.00 0.00
1:15 am 01:15 Clear 78 25.8 76 24.7 94 94 E 5 7 30.02 1017 10 16 0.00 0.00
1:35 am 01:35 Partly Cloudy 79 25.9 76 24.4 91 91 E 5 7 30.02 1017 10 16 0.00 0.00
1:55 am 01:55 Mostly Cloudy 78 25.6 75 24 91 91 ESE 5 7 30.01 1016 10 16 0.00 0.00
2:15 am 02:15 Partly Cloudy 78 25.5 75 24 91 91 Calm 30.01 1016 10 16 0.00 0.00
2:35 am 02:35 Clear 78 25.7 75 23.9 90 90 Calm 30.00 1016 10 16 0.00 0.00
2:55 am 02:55 Clear 78 25.5 75 23.7 90 90 Calm 30.00 1016 10 16 0.00 0.00
3:15 am 03:15 Clear 78 25.3 75 23.8 91 91 Calm 30.00 1016 10 16 0.00 0.00
3:35 am 03:35 Clear 78 25.4 75 23.8 91 91 Calm 30.00 1016 10 16 0.00 0.00
3:55 am 03:55 Clear 77 24.9 75 23.7 93 93 Calm 30.01 1016 10 16 0.00 0.00
4:15 am 04:15 Clear 77 24.9 75 23.7 93 93 Calm 30.01 1016 10 16 0.00 0.00
4:35 am 04:35 Partly Cloudy 76 24.7 75 23.7 94 94 Calm 30.01 1016 10 16 0.00 0.00
4:55 am 04:55 Partly Cloudy 78 25.4 75 23.9 91 91 NW 3 6 30.02 1017 10 16 0.00 0.00
5:15 am 05:15 Mostly Cloudy 77 25 75 23.9 94 94 Calm 30.02 1017 10 16 0.00 0.00
5:35 am 05:35 Mostly Cloudy 76 24.6 74 23.6 94 94 NNE 3 6 30.02 1017 10 16 0.00 0.00
6:00 am 06:00 Partly Cloudy 77 25 75 24 94 94 Calm 30.03 1017 10 16 0.00 0.00
6:55 am 06:55 Mostly Sunny 77 25 75 24 94 94 Calm 30.03 1017 10 16 0.00 0.00
7:47 am 07:47 Mostly Sunny 79 26 75 24 89 89 Calm 30.04 1017 10 16 0.00 0.00
8:47 am 08:47 Mostly Sunny 81 27 72 22 74 74 Calm 30.06 1018 10 16 0.00 0.00
9:49 am 09:49 Mostly Sunny 84 29 72 22 66 66 E 6 9 30.06 1018 10 16 0.00 0.00
10:49 am 10:49 Mostly Sunny 88 31 72 22 59 59 E 5 7 30.07 1018 10 16 0.00 0.00
11:52 am 11:52 Mostly Sunny 88 31 68 20 52 52 E 5 7 30.07 1018 10 16 0.00 0.00
12:50 pm 12:50 Partly Cloudy 90 32 70 21 52 52 E 7 11 30.07 1018 10 16 0.00 0.00
1:53 pm 13:53 Partly Cloudy 90 32 72 22 55 55 Calm 30.06 1018 10 16 0.00 0.00
2:50 pm 14:50 Partly Cloudy 91 33 72 22 52 52 ESE 6 9 30.05 1018 10 16 0.00 0.00
3:45 pm 15:45 Partly Cloudy 91 33 72 22 52 52 ESE 5 7 30.04 1017 10 16 0.00 0.00
4:50 pm 16:50 Partly Cloudy 91 33 72 22 52 52 ESE 9 15 30.03 1017 10 16 0.00 0.00
5:45 pm 17:45 Partly Cloudy 91 33 70 21 49 49 ESE 7 11 30.02 1017 10 16 0.00 0.00
6:50 pm 18:50 Mostly Sunny 90 32 70 21 52 52 E 7 11 30.02 1017 10 16 0.00 0.00
7:45 pm 19:45 Mostly Sunny 86 30 72 22 62 62 Calm 30.02 1017 10 16 0.00 0.00
8:45 pm 20:45 Mostly Clear 82 28 73 23 74 74 ESE 5 7 30.03 1017 10 16 0.00 0.00
9:45 pm 21:45 Mostly Clear 81 27 73 23 79 79 S 6 9 30.05 1018 10 16 0.00 0.00
10:15 pm 22:15 Clear 78 25.7 74 23.6 88 88 SSE 5 7 30.05 1018 10 16 0.00 0.00
10:35 pm 22:35 Clear 78 25.4 74 23.5 89 89 SSE 5 7 30.05 1018 10 16 0.00 0.00
10:55 pm 22:55 Clear 78 25.5 74 23.6 89 89 S 5 7 30.05 1018 10 16 0.00 0.00
11:15 pm 23:15 Clear 79 25.9 75 23.8 88 88 SSE 5 7 30.06 1018 10 16 0.00 0.00
11:35 pm 23:35 Clear 78 25.4 75 23.8 91 91 S 3 6 30.06 1018 10 16 0.00 0.00
11:55 pm 23:55 Clear 78 25.3 75 24 93 93 S 3 6 30.06 1018 10 16 0.00 0.00

Powered by AerisWeather